This is the latest recevied weather packets stored in our database for station/object KB1JL-13. If no packets are shown the sender has not sent any weather packets the latest 10 day(s).
| Time | Temp. | Humidity | Pressure | Rain* | Wind** | Luminosity | Snow |
|---|---|---|---|---|---|---|---|
| 1777999639 | 22.22° C | 67% | 1021.6 hPa | 0 mm | - | 634 W/m² | - |
| 1777999336 | 21.67° C | 64% | 1021.9 hPa | 0 mm | - | 649 W/m² | - |
| 1777999034 | 21.67° C | 64% | 1022.2 hPa | 0 mm | - | 658 W/m² | - |
| 1777998733 | 21.67° C | 67% | 1021.9 hPa | 0 mm | - | 662 W/m² | - |
| 1777998429 | 21.67° C | 65% | 1021.9 hPa | 0 mm | - | 669 W/m² | - |
| 1777998127 | 21.11° C | 66% | 1022.2 hPa | 0 mm | - | 659 W/m² | - |
| 1777997823 | 21.67° C | 65% | 1021.9 hPa | 0 mm | - | 638 W/m² | - |
| 1777997521 | 21.11° C | 66% | 1022.2 hPa | 0 mm | - | 624 W/m² | - |
| 1777997218 | 21.11° C | 66% | 1022.2 hPa | 0 mm | - | 615 W/m² | - |
| 1777996916 | 20.56° C | 69% | 1022.2 hPa | 0 mm | - | 618 W/m² | - |
| 1777996612 | 20.56° C | 67% | 1022.2 hPa | 0 mm | - | 646 W/m² | - |
| 1777996308 | 20.56° C | 67% | 1021.9 hPa | 0 mm | - | 702 W/m² | - |
| 1777996005 | 20.56° C | 68% | 1022.2 hPa | 0 mm | - | 678 W/m² | - |
| 1777995701 | 20.56° C | 67% | 1022.6 hPa | 0 mm | - | 672 W/m² | - |
| 1777995398 | 20.56° C | 69% | 1022.6 hPa | 0 mm | - | 683 W/m² | - |
| 1777995095 | 20.56° C | 67% | 1022.6 hPa | 0 mm | - | 728 W/m² | - |
| 1777994792 | 20.56° C | 69% | 1022.6 hPa | 0 mm | - | 749 W/m² | - |
| 1777994487 | 20.56° C | 69% | 1022.6 hPa | 0 mm | - | 760 W/m² | - |
| 1777994183 | 20° C | 68% | 1022.6 hPa | 0 mm | - | 760 W/m² | - |
| 1777993881 | 20° C | 69% | 1023 hPa | 0 mm | - | 763 W/m² | - |
| 1777993576 | 20° C | 69% | 1022.6 hPa | 0 mm | - | 700 W/m² | - |
| 1777993274 | 20° C | 69% | 1023 hPa | 0 mm | - | 674 W/m² | - |
| 1777992969 | 19.44° C | 70% | 1023 hPa | 0 mm | - | 699 W/m² | - |
| 1777992668 | 20° C | 70% | 1023 hPa | 0 mm | - | 719 W/m² | - |
| 1777992365 | 19.44° C | 70% | 1022.6 hPa | 0 mm | - | 701 W/m² | - |
* Rain latest hour (hover to see other rain measurements)
** Current wind speed in m/s (hover to see current wind gust speed)